Orbital Elements at Epoch 2459200.5 (2020-Dec-17.0) TDB
Reference: JPL 21 (heliocentric ecliptic J2000)
Element | Value | Uncertainty (1-sigma) | Units |
e | .1903726939747739 | 7.0044e-08 | |
a | 2.304429409327649 | 7.083e-09 | au |
q | 1.865728974599247 | 1.6223e-07 | au |
i | 3.06772920649471 | 4.09e-06 | deg |
node | 33.49028083274022 | 0.00011556 | deg |
peri | 320.2352300666661 | 0.00011623 | deg |
M | 16.48010094434929 | 1.1205e-05 | deg |
tp | 2459142.007402551853 (2020-Oct-19.50740255) | 3.9784e-05 | TDB |
period | 1277.743088615793 3.50 | 5.891e-06 1.613e-08 | d yr |
n | .2817467793075646 | 1.299e-09 | deg/d |
Q | 2.74312984405605 | 8.4315e-09 | au |
|
| | Orbit Determination Parameters
Additional Information
|